Погода в Бутурлинке

Россия / Саратовская область     52°21′15″N   44°30′47″E
В апреле 2022 года жителям России запретили посещать сайт meteo.paraplan.net по решению Генеральной прокуратуры. Аудитория сайта уменьшилась в 10 раз. Владельцы сайта не видят смысла в поддержке погодного сервера в таких условиях. Сайт будет закрыт в октябре.
темп.,
°C
ветер,
м/с
пор.,
м/с
влажн.,
%
обл.,
%
осадки,
мм/ч
давл.,
гПа
погр.,
м
3 октября, пн
пн301:00+17ююв71770100 0.0 1007539
04:00+17юв81865100 0.0 1006604
07:00+15юв102059100 0.0 1005742
10:00+17ююв121949100 0.0 10061088
13:00+17ююв111754100 0.2 10071023
16:00+14ю71188100 4.2 1010869
19:00+13ююв3583100 0.3 101385
22:00+12ююз34764 0.4 101587
4 октября, вт
вт401:00+10ююв33773 0.0 101643
04:00+10ююв3683100 0.0 101798
07:00+9юв4990100 0.0 1017168
10:00+13ююв5981100 0.0 1018431
13:00+17ююв6859100 0.0 10181215
16:00+16ююв7969100 0.1 1018986
19:00+11ююв81481100 0.1 1020539
22:00+11ююв71378100 0.1 1020538
5 октября, ср
ср501:00+10ююв7138177 0.0 1020434
04:00+9ююв61189100 0.0 1020333
07:00+10ююв5118515 0.0 1020346
10:00+12ю610745 0.1 1019483
13:00+16юз7964100 0.1 10191258
16:00+16юз5957100 0.4 10181444
19:00+12юз386092 0.0 1020158
22:00+10юз377116 0.0 1020135
6 октября, чт
чт601:00+10юз377399 0.0 1019231
04:00+8з47847 0.0 1020232
07:00+7зюз498530 0.0 1020443
10:00+9з58695 0.0 1020756
13:00+10з6863100 0.1 10201265
16:00+12з6859100 0.2 10191589
19:00+9з6978100 0.1 1020582
22:00+9зюз51089100 0.3 1020534
7 октября, пт
пт701:00+10зюз6138469 0.1 1019498
04:00+10зюз61385100 0.1 1018493
07:00+10зюз6138593 0.0 1018500
10:00+12з7117946 0.0 1018617
13:00+15зсз687090 0.0 1019822
16:00+13зсз6876100 0.1 1020916
19:00+11зюз49760 0.0 1021185
22:00+9зсз411790 0.0 1022256